Regional Weather Roundup
Issued by NWS Albany, NY

Home | Current Version | Previous Version | Graphics & Text | Print | Product List | Glossary On
Versions: 1 2 3 4 5 6 7 8 9 10 11 12 13 14 15 16 17 18 19 20 21 22 23 24 25 26 27 28
000
ASUS41 KALY 200110
RWRALY

NEW YORK STATE HOURLY WEATHER ROUNDUP
NATIONAL WEATHER SERVICE ALBANY NY
800 PM EST THU JAN 19 2017

NOTE: "FAIR" INDICATES FEW OR NO CLOUDS BELOW 12,000 FEET WITH NO
SIGNIFICANT WEATHER AND/OR NO OBSTRUCTIONS TO VISIBILITY.

NYZ032-033-038>043-046>054-057>066-NYZ062>081-082-084-200200-
EAST


CITY           SKY/WX    TMP DP  RH WIND       PRES   REMARKS
ALBANY         CLOUDY    37  31  78 W13       30.05R WCI  29
GLENS FALLS    CLOUDY    38  34  85 CALM      30.05R
POUGHKEEPSIE   CLOUDY    40  32  73 VRB3      30.03S
MONTGOMERY     CLOUDY    42  32  67 N3        30.02S
WHITE PLAINS   MOCLDY    41  33  73 NW6       30.02R
ISLIP          CLOUDY    43  35  73 W3        30.03R
NEW YORK CITY  CLOUDY    44  32  62 NW9       30.04S
CENTRAL PARK   CLOUDY    43  32  65 W5        30.06S
$$

NYZ005>009-017-018-044>046-055-056-200200-
CENTRAL


CITY           SKY/WX    TMP DP  RH WIND       PRES   REMARKS
FULTON         CLOUDY    35  33  92 CALM      30.06F
SYRACUSE       CLOUDY    36  32  85 N3        30.07F
ROME           CLOUDY    34  34 100 NW3       30.09R
ELMIRA         CLOUDY    37  32  82 NE6       30.02F WCI  32
BINGHAMTON     CLOUDY    33  30  88 NE3       30.01S
MONTICELLO     CLOUDY    34  30  86 NW5       30.03R WCI  30
$$

NYZ026>034-041>043-087-200200-
NORTH


CITY           SKY/WX    TMP DP  RH WIND       PRES   REMARKS
WATERTOWN      CLOUDY    35  35 100 CALM      30.05F FOG
FORT DRUM      NOT AVBL
OGDENSBURG     CLOUDY    34  33  97 CALM      30.05S FOG
MASSENA        CLOUDY    34  33  96 CALM      30.06S
SARANAC LAKE   CLOUDY    31  29  92 SW3       29.98R
PLATTSBURGH    CLOUDY    37  29  72 NW3       30.04R
$$

NYZ001>004-010>016-019>021-085-200200-
WEST


CITY           SKY/WX    TMP DP  RH WIND       PRES   REMARKS
NIAGARA FALLS  CLOUDY    35  32  88 CALM      30.01S FOG
BUFFALO        DRIZZLE   33  32  96 S3        30.01F FOG
DUNKIRK        FOG       34  34 100 CALM      30.01S VSB 1/2
JAMESTOWN      CLOUDY    36  32  87 S3        29.95F
WELLSVILLE     CLOUDY    36  33  89 S3        29.97F
ROCHESTER      CLOUDY    36  32  85 CALM      30.03F
PENN YAN       CLOUDY    35  31  85 CALM      30.04F
$$

             KEY
       WCI = WIND CHILL INDEX
       VSB = VISIBILITY
       HX  = HEAT INDEX
$$




USA.gov is the U.S. government's official web portal to all federal, state and local government web resources and services.